FW5680 Weather Reports


time (UTC)temp
C
wind
direction
speed
KPH
gust
KPH
rain 1hr
cm
rain 24hr
cm
rain mn
cm
humidity
%
barometer
mb
20260503020052 18 116 8.0 0.0 0.00 0.00 0.00 36 1013.6
20260503014603 18 116 9.7 0.0 0.00 0.00 0.00 35 1013.5
20260503013053 18 109 8.0 0.0 0.00 0.00 0.00 36 1013.6
20260503011557 18 119 14.5 0.0 0.00 0.00 0.00 35 1013.6
20260503010105 19 104 6.4 0.0 0.00 0.00 0.00 33 1013.6
20260503004550 19 104 9.7 0.0 0.00 0.00 0.00 33 1013.7
20260503003057 20 96 12.9 0.0 0.00 0.00 0.00 33 1013.7
20260503001546 19 90 1.6 0.0 0.00 0.00 0.00 33 1014.0
20260503000052 19 308 3.2 0.0 0.00 0.00 0.00 31 1014.1
20260502234545 19 301 1.6 0.0 0.00 0.00 0.00 32 1014.2
20260502233044 19 294 8.0 0.0 0.00 0.00 0.00 31 1014.2
20260502231543 20 192 0.0 0.0 0.00 0.00 0.00 31 1014.3
20260502230041 20 192 6.4 0.0 0.00 0.00 0.00 31 1014.3
20260502224540 20 196 3.2 0.0 0.00 0.00 0.00 31 1014.5
20260502223038 20 268 8.0 0.0 0.00 0.00 0.00 30 1014.8
20260502221537 21 327 4.8 0.0 0.00 0.00 0.00 30 1014.9
20260502220034 21 19 6.4 0.0 0.00 0.00 0.00 30 1015.2
20260502214534 19 86 6.4 0.0 0.00 0.00 0.00 33 1015.4
20260502213040 19 55 3.2 0.0 0.00 0.00 0.00 34 1015.5
20260502211532 19 267 6.4 0.0 0.00 0.00 0.00 33 1015.8
20260502210031 20 287 3.2 0.0 0.00 0.00 0.00 33 1016.0
20260502204530 20 32 3.2 0.0 0.00 0.00 0.00 33 1016.1
20260502203031 20 281 9.7 0.0 0.00 0.00 0.00 33 1016.3
20260502201531 20 331 3.2 0.0 0.00 0.00 0.00 34 1016.4
20260502200024 18 286 6.4 0.0 0.00 0.00 0.00 36 1016.5
20260502194522 18 15 9.7 0.0 0.00 0.00 0.00 38 1016.6
20260502193021 17 61 11.3 0.0 0.00 0.00 0.00 38 1016.8
20260502191523 17 285 4.8 0.0 0.00 0.00 0.00 38 1017.1
20260502190023 17 273 6.4 0.0 0.00 0.00 0.00 37 1017.1
20260502184525 17 344 8.0 0.0 0.00 0.00 0.00 38 1017.2
20260502183019 17 287 1.6 0.0 0.00 0.00 0.00 37 1017.1
20260502181518 18 271 6.4 0.0 0.00 0.00 0.00 36 1017.2
20260502163006 16 293 3.2 0.0 0.00 0.00 0.00 42 1017.7
20260502161559 16 300 6.4 0.0 0.00 0.00 0.00 44 1017.9
20260502151552 13 304 12.9 0.0 0.00 0.00 0.00 51 1018.3
20260502123003 6 319 9.7 0.0 0.00 0.00 0.00 62 1018.2
20260502121559 6 342 9.7 0.0 0.00 0.00 0.00 61 1017.8
20260502120105 5 360 8.0 0.0 0.00 0.00 0.00 61 1017.7
20260502114556 6 318 6.4 0.0 0.00 0.00 0.00 58 1017.7
20260502113052 6 317 4.8 0.0 0.00 0.00 0.00 55 1017.5
20260502111548 7 307 4.8 0.0 0.00 0.00 0.00 56 1017.3
20260502110046 7 82 0.0 0.0 0.00 0.00 0.00 54 1017.0
20260502104544 8 82 0.0 0.0 0.00 0.00 0.00 52 1016.7
20260502103042 8 82 6.4 0.0 0.00 0.00 0.00 52 1016.6
20260502101544 7 33 6.4 0.0 0.00 0.00 0.00 57 1016.2
20260502071517 10 294 9.7 0.0 0.00 0.00 0.00 45 1015.4
20260502070015 9 304 0.0 0.0 0.00 0.00 0.00 42 1015.4
20260502064531 9 304 4.8 0.0 0.00 0.00 0.00 43 1015.2
20260502063012 8 297 6.4 0.0 0.00 0.00 0.00 46 1015.3
20260502061507 8 269 0.0 0.0 0.00 0.00 0.00 43 1015.3
20260502060006 8 323 8.0 0.0 0.00 0.00 0.00 42 1015.2
20260502054504 9 330 9.7 0.0 0.00 0.00 0.00 40 1015.0
20260502053003 10 302 9.7 0.0 0.00 0.00 0.00 38 1015.0
20260502051503 11 301 8.0 0.0 0.00 0.00 0.00 36 1014.9
20260502050001 12 293 9.7 0.0 0.00 0.00 0.00 34 1014.8
20260502044500 12 299 11.3 0.0 0.00 0.00 0.00 32 1014.8
20260502043101 13 292 11.3 0.0 0.00 0.00 0.00 31 1014.7
20260502041559 13 280 11.3 0.0 0.00 0.00 0.00 31 1014.6
20260502040107 13 277 8.0 0.0 0.00 0.00 0.00 31 1014.6
20260502034558 15 239 6.4 0.0 0.00 0.00 0.00 26 1014.5
20260502033059 15 286 9.7 0.0 0.00 0.00 0.00 26 1014.4
20260502031629 17 290 8.0 0.0 0.00 0.00 0.00 23 1014.2
20260502030100 18 275 11.3 0.0 0.00 0.00 0.00 23 1014.0
20260502024556 18 269 11.3 0.0 0.00 0.00 0.00 21 1013.8
20260502023058 20 273 11.3 0.0 0.00 0.00 0.00 20 1013.7
20260502021555 20 256 12.9 0.0 0.00 0.00 0.00 19 1013.5